Location: Agus-us
(14.2247°N, 120.8593°E)
Time: 08:37:31
(UTC+00:00)

GPS 2-15 Rocket1 - Pass Details

Date: 13 December 2025
Orbit: 608 x 652 km, 19.8° (Epoch: 15 January)

Event Time Altitude Azimuth Distance (km) Brightness Sun altitude
Exits shadow 20:29:49 46° 15° (NNE) 819 3.6 -24.0°
Drops below altitude 10° 20:33:44 10° 67° (ENE) 1,954 6.2 -23.1°
Sets 20:36:07 0° 73° (ENE) 2,853 7.3 -22.5°
